Terminal Aerodrome Forecast
Issued by NWS Paducah, KY

Home | Current Version | Previous Version | Text Only | Print | Product List | Glossary On
Versions: 1 2 3 4 5 6 7 8 9 10 11 12 13 14 15 16 17 18 19 20 21 22 23 24
000
FTUS43 KPAH 051128
TAFPAH
TAF
KPAH 051128Z 0512/0612 00000KT 1/4SM FG VV001
      TEMPO 0512/0513 1SM BR SCT001
     FM051300 VRB02KT 4SM BR BKN015
     FM051600 17003KT 6SM HZ SCT035
     FM060800 VRB03KT 3SM BR SCT050=

USA.gov is the U.S. government's official web portal to all federal, state and local government web resources and services.